STARLINK-1279, 45360

Orbit data source: Space-Track

STARLINK-1279, 45360 is a payload satellite owned by SpaceX/Seattle (US) in LEO that was launched on Wed, 18 Mar 2020 UTC via an FALCON 9 launch vehicle from the Air Force Eastern Test Range (AFETR). Payload-class satellites include a variety of spacecraft equipped with specific instruments for various scientific and technological missions. These include communications satellites like Starlink; space stations such as the ISS; scientific satellites like the Hubble; Earth observation satellites from companies like Planet Labs, Umbra, and HawkEye 360; GPS; miniature CubeSats for education and research; and military/defense satellites.

Loading next visibility...
Identifier
45360, 2020-019A
Orbit
LEO
Country
Flag of USUS
Related business
Manufacturer
SpaceX/Seattle
Mission
Partially operational Commercial Communications
Bus & Motor
STARLINK, Unknown motor
Mass
260 kg wet, ~248 kg dry
Launch date (UTC)
2020-03-18 (6 years ago)
Launch vehicle
FALCON 9
Launch site
Air Force Eastern Test Range (AFETR)
Object type
Payload
Rocket body
Debris
Shape & HBR
Box + 1 Pan, 10.1 m
Radar Cross Section
13.562 m², Large (>1 m²)

Expand to show TLE details & history
Last TLE update: 9 hours ago

TLE from 9 hours ago
0 STARLINK-1279
1 45360U 20019A   26120.00001156  .00100895  00000-0  86808-3 0  9990
2 45360  53.0393 207.6950 0007791 339.7958  81.1402 15.68511535  5876
Epoch: 2026-04-30T00:00Z
TLE epoch observation values (Epoch: 2026-04-30T00:00:00.998Z)
Latitude
44.49153°
Longitude
37.05314°
Altitude
366.899 km
Speed
7.695 km/s
True Right ascension
17h 00m 02s
True Declination
44° 18' 35"
Sunlit
Object was in full shadow at epoch
Visualization orbit readout
Latitude
Unknown
Longitude
Unknown
Altitude
Unknown
Speed
Unknown
Apparent Right ascension
Unknown
Apparent Declination
Unknown
Sunlit
N/A
Visualization observer readout
Local Sidereal Time
16:37:35
Azimuth
Unknown
Elevation
Unknown
Doppler factor
Unknown
Orbital elements
Apogee altitude
368.691 km
Perigee altitude
358.187 km
Semi-major axis
6,741.576 km
Eccentricity
0.00078
Inclination
53.0393°
RAAN
207.695°
Arg. of periapsis
339.7958°
True anomaly
81.22843°
Mean anomaly
81.1402°
Eccentric anomaly
81.18431°
Mean motion
3.92104 °/min
Orbital period
91.81 mins
BSTAR
0.00086808
Loading maneuver chart data...
Computing Atmospheric mass density...
Loading historical data...
Loading historical data...
Loading historical data...
Loading historical data...
Loading historical data...
Loading historical data...
Loading historical data...

Documentation

Showing up to 5 results
|